Regional Weather Roundup
Issued by NWS

Home | Current Version | Previous Version | Text Only | Print | Product List | Glossary Off
Versions: 1 2 3 4 5 6 7 8 9 10 11 12 13 14 15 16 17 18 19 20 21 22 23 24 25 26 27

000
ASUS45 KBOU 152006
RWRCO

WEATHER ROUNDUP FOR COLORADO
NATIONAL WEATHER SERVICE DENVER/BOULDER CO
200 PM MDT TUE APR 15 2014

NOTE: "FAIR" INDICATES FEW OR NO CLOUDS BELOW 12000 FEET WITH NO
SIGNIFICANT WEATHER AND/OR OBSTRUCTIONS TO VISIBILITY.

COZ001>005-013-030-031-152100-
...NORTHWEST COLORADO...

CITY           SKY/WX    TMP DP  RH WIND       PRES   REMARKS
CRAIG          MOSUNNY   54  22  28 S17G26    29.95F
HAYDEN         MOSUNNY   50  21  32 W14G21    29.98F
MEEKER         PTSUNNY   52  21  29 SW15      29.97F
MOUNT WERNER   MOSUNNY   34  12  40 SW10G16   30.06F WCI  26
STEAMBOAT SPGS MOSUNNY   46  16  29 E3        29.98F
WALDEN         PTSUNNY   37  18  44 SW25G32   29.95F
$$

COZ006>008-011-152100-
...WEST CENTRAL VALLEYS...

CITY           SKY/WX    TMP DP  RH WIND       PRES   REMARKS
GRAND JUNCTION MOSUNNY   55  16  21 NW7       30.00F
MONTROSE       PTSUNNY   54  20  26 SE3       30.04F
EAGLE          NOT AVBL
RIFLE          CLOUDY    52  17  25 W10       30.00F
DELTA          PTSUNNY   59  19  20 S6        30.02F
NUCLA            N/A     55  18  22 CALM      30.08F
$$

COZ017>023-064>068-152100-
...SOUTHWEST COLORADO...

CITY           SKY/WX    TMP DP  RH WIND       PRES   REMARKS
DURANGO        SUNNY     56   7  14 SW16G26   30.06F
CORTEZ         SUNNY     61  11  14 S14       30.06F
PAGOSA SPRINGS SUNNY     55   3  12 SW13G20   30.07F
TELLURIDE      MOSUNNY   46  12  25 NW6G16    30.10F
WOLF CREEK PAS NOT AVBL
$$

COZ009-010-012-014-032>034-037-058>063-152100-
...CENTRAL COLORADO...

CITY           SKY/WX    TMP DP  RH WIND       PRES   REMARKS
ASPEN          PTSUNNY   51  14  22 N14G21    30.01F
BUENA VISTA    PTSUNNY   55   6  13 W18G31    29.95F
COPPER MTN     PTSUNNY   34  10  37 W32       30.07F WCI  20
BERTHOUD PASS  CLOUDY    25  14  63 NW23G38   30.07R WCI  10
COTTONWOOD PAS PTSUNNY   46   1  15 W16G39    30.00F
GUNNISON       MOSUNNY   52  14  22 SW16G22   30.07F
KREMMLING      PTSUNNY   43  21  42 SE5       30.01F
LEADVILLE      PTSUNNY   40   8  26 NW14G21   30.03F
MONARCH PASS   MOSUNNY   27   9  46 W36G47    30.20F WCI   9
SALIDA         PTSUNNY   58   6  12 SW22G31   30.05F
SUNLIGHT       PTSUNNY   36  21  55 CALM      30.10F
WILKERSON PASS PTSUNNY   39  14  35 SW7       30.07F
$$

COZ069>075-152100-
...SAN LUIS VALLEY/SANGRE DE CRISTO MOUNTAINS...

CITY           SKY/WX    TMP DP  RH WIND       PRES   REMARKS
ALAMOSA        SUNNY     54  14  20 VRB3      30.01F
LA VETA PASS   MOSUNNY   43  10  26 SW10G24   30.07F
SAGUACHE       SUNNY     52  12  20 S12       30.02F
$$

COZ035-036-038>040-152100-
...NORTHERN COLORADO FRONT RANGE...

CITY           SKY/WX    TMP DP  RH WIND       PRES   REMARKS
DENVER INTL AP CLOUDY    61  17  18 CALM      29.83F
DMNS CITY PARK   N/A     63  16  16 N14       29.82F
AURORA         PTSUNNY   63  18  17 NW3       29.84F
FRONT RANGE AP PTSUNNY   63  19  19 CALM      29.85
ERIE MUNI ARPT PTSUNNY   63  21  20 N7        29.81F
BOULDER MUN AP PTSUNNY   63  19  19 SE3       29.82F
CENTENNIAL     CLOUDY    61  14  16 VRB3      29.84F
BROOMFIELD     PTSUNNY   61  16  17 SW16G22   29.85F
FORT COLLINS   CLOUDY    57  30  35 SE6       29.83F
LONGMONT       CLOUDY    66  19  16 CALM      29.83F
$$

COZ041-046-047-076>085-087-088-152100-
...PIKES PEAK/PALMER DIVIDE AND SOUTHERN FOOTHILLS...

CITY           SKY/WX    TMP DP  RH WIND       PRES   REMARKS
COLO. SPRINGS  CLOUDY    57  21  24 SE8G18    29.90F
A. F. ACADEMY  PTSUNNY   58  16  20 SE10      29.89F
ELLICOTT       NOT AVBL
FALCON         CLOUDY    54  14  21 S12       29.92F
FORT CARSON    PTSUNNY   60  25  26 NE10G18   29.86F
LIMON          PTSUNNY   58  20  22 S17       29.87F
MONUMENT HILL  CLOUDY    54  19  26 SW10      29.89F
TRINIDAD       SUNNY     63  18  17 S6        29.91F
$$

COZ042>045-048>051-090-091-152100-
...NORTHEAST COLORADO...

CITY           SKY/WX    TMP DP  RH WIND       PRES   REMARKS
GREELEY ARPT   CLOUDY    55  36  47 SE6       29.83F
AKRON          PTSUNNY   58  25  28 S21G26    29.84F
BURLINGTON     CLOUDY    62  15  16 MISG      29.89F
WRAY           PTSUNNY   65  22  19 SW16      29.84F
STERLING       PTSUNNY   64  34  32 S10       29.81F
HOLYOKE        PTSUNNY   61  30  31 SW17      29.84F
FORT MORGAN    PTSUNNY   60  22  23 W9        29.84F
$$

COZ086-089-092>099-152100-
...SOUTHEAST COLORADO...

CITY           SKY/WX    TMP DP  RH WIND       PRES   REMARKS
PUEBLO         MOSUNNY   63  18  17 S10       29.85F
LA JUNTA       MOSUNNY   65  19  17 SW17      29.88F
LAMAR          PTSUNNY   64  13  13 SW10      29.89F
SPRINGFIELD    NOT AVBL
$$



USA.gov is the U.S. government's official web portal to all federal, state and local government web resources and services.